Location: Csohesd
(46.2500°N, 22.6167°E)
Time: 05:15:58
(UTC+00:00)

CZ-4 R/B - Pass Details

Date: 21 October 2021
Orbit: 580 x 588 km, 97.7° (Epoch: 04 December)

Event Time Altitude Azimuth Distance (km) Brightness Sun altitude
Rises 16:29:40 0° 156° (SSE) 2,801 7.7 -10.6°
Reaches altitude 10° 16:31:50 10° 153° (SSE) 1,904 6.8 -10.9°
Maximum altitude 16:35:54 61° 73° (ENE) 666 4.4 -11.6°
Drops below altitude 10° 16:40:00 10° 354° (N) 1,915 7.1 -12.3°
Sets 16:42:11 0° 351° (N) 2,818 8.0 -12.7°
